Date String (YYYY-MM-DD hh:mm:ss) UTC,Instrument flags,absolute air pressure of the measurement (hPa),sample flow rate (lpm),inlet stack bypass flow (lpm),air temperature of the measurement (°C),ambient temperature measured by the external sensor (°C),aerosol sample conditioner tube jacket temperature (°C),OPC LED temperature (°C),internal box temperature (°C),relative humidity of the measurement (%),span deviation,mass concentration of particles derived from Lorenz-Mie calculation of OPC scattering (μg/m³),mass concentration of particles derived from Lorenz-Mie calculation of OPC scattering (μg/m³),mass concentration of particles derived from Lorenz-Mie calculation of OPC scattering (μg/m³)
DateTimeUTC,F1_M11,P_M11,Q1_M11,Q2_M11,T1_M11,T2_M11,T3_M11,T4_M11,T5_M11,U1_M11,ZSPAN_M11,X0_M11,X2_M11,X1_M11
2024-03-10 05:00:00,SystemResetWarning,0828.6,4.99,000.00,018.3,017.4,000.0,026.9,020.0,09.4,0000.0,0006.96,0002.11,0001.12
2024-03-10 05:01:00,SystemResetWarning,0828.6,5.00,000.00,018.3,017.4,000.0,026.9,020.0,09.4,0000.0,0006.96,0002.13,0001.12
2024-03-10 05:02:00,SystemResetWarning,0828.6,5.01,000.00,018.3,017.4,000.0,026.9,020.0,09.1,0000.0,0007.10,0002.09,0001.13
2024-03-10 05:03:00,SystemResetWarning,0828.6,5.00,000.00,018.3,017.4,000.0,026.9,020.0,09.3,0000.0,0006.49,0002.07,0001.14
2024-03-10 05:04:00,SystemResetWarning,0828.6,5.01,000.00,018.3,017.4,000.0,026.9,020.0,09.2,0000.0,0006.53,0002.08,0001.15
2024-03-10 05:05:00,SystemResetWarning,0828.6,5.00,000.00,018.3,017.4,000.0,026.9,020.0,09.2,0000.0,0005.68,0002.04,0001.14
2024-03-10 05:06:00,SystemResetWarning,0828.6,5.00,000.00,018.3,017.4,000.0,026.9,020.0,09.2,0000.0,0006.46,0002.00,0001.16
2024-03-10 05:07:00,SystemResetWarning,0828.6,5.00,000.00,018.3,017.4,000.0,026.9,020.0,09.3,0000.0,0005.77,0001.99,0001.17
2024-03-10 05:08:00,SystemResetWarning,0828.6,5.00,000.00,018.3,017.4,000.0,026.9,020.0,09.3,0000.0,0006.15,0002.00,0001.17
2024-03-10 05:09:00,SystemResetWarning,0828.6,4.99,000.00,018.3,017.3,000.0,026.9,020.0,09.5,0000.0,0006.49,0002.02,0001.17
2024-03-10 05:10:00,SystemResetWarning,0828.6,5.00,000.00,018.3,017.3,000.0,026.9,020.0,09.6,0000.0,0006.80,0002.02,0001.17
2024-03-10 05:11:00,SystemResetWarning,0828.6,4.99,000.00,018.3,017.3,000.0,026.9,020.0,09.4,0000.0,0006.78,0001.95,0001.17
2024-03-10 05:12:00,SystemResetWarning,0828.6,5.00,000.00,018.3,017.3,000.0,026.9,020.0,09.6,0000.0,0006.66,0001.91,0001.18
2024-03-10 05:13:00,SystemResetWarning,0828.6,5.00,000.00,018.3,017.3,000.0,026.9,020.0,09.4,0000.0,0006.22,0001.87,0001.18
2024-03-10 05:14:00,SystemResetWarning,0828.6,5.00,000.00,018.3,017.3,000.0,026.9,020.0,09.5,0000.0,0006.42,0001.86,0001.16
2024-03-10 05:15:00,SystemResetWarning,0828.6,5.01,000.00,018.3,017.3,000.0,026.9,020.0,09.5,0000.0,0006.29,0001.81,0001.14
2024-03-10 05:16:00,SystemResetWarning,0828.6,5.00,000.00,018.3,017.3,000.0,026.9,020.0,09.8,0000.0,0006.14,0001.78,0001.14
2024-03-10 05:17:00,SystemResetWarning,0828.6,4.99,000.00,018.3,017.4,000.0,026.9,020.0,10.0,0000.0,0004.74,0001.76,0001.13
2024-03-10 05:18:00,SystemResetWarning,0828.6,5.00,000.00,018.3,017.3,000.0,026.9,020.0,09.5,0000.0,0004.52,0001.76,0001.12
2024-03-10 05:19:00,SystemResetWarning,0828.6,5.00,000.00,018.3,017.3,000.0,026.9,020.0,09.4,0000.0,0004.32,0001.78,0001.12
2024-03-10 05:20:00,SystemResetWarning,0828.6,5.01,000.00,018.3,017.3,000.0,026.9,020.0,09.2,0000.0,0004.24,0001.79,0001.12
2024-03-10 05:21:00,SystemResetWarning,0828.6,5.01,000.00,018.3,017.3,000.0,026.9,020.0,09.3,0000.0,0003.84,0001.78,0001.11
2024-03-10 05:22:00,SystemResetWarning,0828.6,5.00,000.00,018.3,017.3,000.0,026.9,020.0,09.6,0000.0,0003.90,0001.84,0001.10
2024-03-10 05:23:00,SystemResetWarning,0828.7,4.99,000.00,018.3,017.3,000.0,026.9,020.0,09.8,0000.0,0003.88,0001.88,0001.10
2024-03-10 05:24:00,SystemResetWarning,0828.7,5.00,000.00,018.3,017.3,000.0,026.9,020.0,10.0,0000.0,0004.31,0001.87,0001.09
2024-03-10 05:25:00,SystemResetWarning,0828.7,5.00,000.00,018.3,017.2,000.0,026.9,020.0,09.5,0000.0,0004.10,0001.88,0001.09
2024-03-10 05:26:00,SystemResetWarning,0828.8,5.00,000.00,018.3,017.2,000.0,026.9,020.0,09.6,0000.0,0004.16,0001.94,0001.10
2024-03-10 05:27:00,SystemResetWarning,0828.8,5.00,000.00,018.3,017.2,000.0,026.9,020.0,09.5,0000.0,0004.26,0001.98,0001.10
2024-03-10 05:28:00,SystemResetWarning,0828.8,5.00,000.00,018.3,017.2,000.0,026.9,020.0,09.5,0000.0,0004.16,0001.96,0001.09
2024-03-10 05:29:00,SystemResetWarning,0828.8,5.00,000.00,018.3,017.2,000.0,026.9,020.0,09.6,0000.0,0004.13,0001.91,0001.08
2024-03-10 05:30:00,SystemResetWarning,0828.8,5.01,000.00,018.3,017.2,000.0,026.9,020.0,09.5,0000.0,0003.90,0001.85,0001.08
2024-03-10 05:31:00,SystemResetWarning,0828.8,5.00,000.00,018.3,017.2,000.0,026.9,020.0,09.6,0000.0,0003.86,0001.87,0001.07
2024-03-10 05:32:00,SystemResetWarning,0828.8,5.01,000.00,018.2,017.2,000.0,026.9,020.0,09.6,0000.0,0003.79,0001.87,0001.07
2024-03-10 05:33:00,SystemResetWarning,0828.8,5.00,000.00,018.2,017.2,000.0,026.9,020.0,09.4,0000.0,0003.75,0001.80,0001.06
2024-03-10 05:34:00,SystemResetWarning,0828.8,4.98,000.00,018.2,017.2,000.0,026.9,020.0,09.3,0000.0,0003.86,0001.73,0001.05
2024-03-10 05:35:00,SystemResetWarning,0828.8,4.99,000.00,018.2,017.2,000.0,027.0,020.0,09.5,0000.0,0003.59,0001.79,0001.06
2024-03-10 05:36:00,SystemResetWarning,0828.8,5.00,000.00,018.2,017.2,000.0,027.0,020.0,09.5,0000.0,0003.71,0001.83,0001.05
2024-03-10 05:37:00,SystemResetWarning,0828.8,5.01,000.00,018.2,017.1,000.0,027.0,020.0,09.5,0000.0,0004.63,0001.83,0001.05
2024-03-10 05:38:00,SystemResetWarning,0828.8,5.01,000.00,018.2,017.1,000.0,027.0,020.0,09.5,0000.0,0004.79,0001.83,0001.05
2024-03-10 05:39:00,SystemResetWarning,0828.8,5.00,000.00,018.2,017.1,000.0,027.0,020.0,09.6,0000.0,0004.83,0001.84,0001.06
2024-03-10 05:40:00,SystemResetWarning,0828.8,5.00,000.00,018.2,017.0,000.0,027.0,020.0,09.6,0000.0,0004.77,0001.85,0001.07
2024-03-10 05:41:00,SystemResetWarning,0828.8,5.00,000.00,018.2,017.0,000.0,027.0,020.0,09.7,0000.0,0004.93,0001.90,0001.06
2024-03-10 05:42:00,SystemResetWarning,0828.8,5.00,000.00,018.2,017.0,000.0,027.0,020.0,09.6,0000.0,0004.94,0001.89,0001.07
2024-03-10 05:43:00,SystemResetWarning,0828.8,5.00,000.00,018.2,017.0,000.0,027.0,020.0,09.6,0000.0,0005.00,0001.92,0001.07
2024-03-10 05:44:00,SystemResetWarning,0828.8,5.00,000.00,018.2,016.9,000.0,027.0,020.0,09.0,0000.0,0004.84,0001.91,0001.09
2024-03-10 05:45:00,SystemResetWarning,0828.8,4.99,000.00,018.2,016.9,000.0,027.0,020.0,09.1,0000.0,0004.49,0001.90,0001.10
2024-03-10 05:46:00,SystemResetWarning,0828.8,5.00,000.00,018.2,016.9,000.0,027.0,020.0,09.2,0000.0,0004.39,0001.85,0001.11
2024-03-10 05:47:00,SystemResetWarning,0828.8,5.00,000.00,018.2,016.9,000.0,027.0,020.0,09.2,0000.0,0004.31,0001.82,0001.13
2024-03-10 05:48:00,SystemResetWarning,0828.8,5.01,000.00,018.2,016.9,000.0,027.0,020.0,09.2,0000.0,0003.16,0001.73,0001.14
2024-03-10 05:49:00,SystemResetWarning,0828.8,5.01,000.00,018.2,016.9,000.0,027.0,020.0,09.3,0000.0,0002.97,0001.76,0001.15
2024-03-10 05:50:00,SystemResetWarning,0828.8,4.99,000.00,018.2,016.9,000.0,027.0,020.0,09.2,0000.0,0002.98,0001.79,0001.16
2024-03-10 05:51:00,SystemResetWarning,0828.8,4.99,000.00,018.2,016.9,000.0,027.0,020.0,09.4,0000.0,0003.21,0001.83,0001.18
2024-03-10 05:52:00,SystemResetWarning,0828.8,4.99,000.00,018.2,016.9,000.0,027.0,020.0,08.8,0000.0,0003.47,0001.85,0001.20
2024-03-10 05:53:00,SystemResetWarning,0828.8,5.01,000.00,018.2,016.9,000.0,027.0,020.0,08.5,0000.0,0004.48,0001.83,0001.22
2024-03-10 05:54:00,SystemResetWarning,0828.8,5.00,000.00,018.2,016.9,000.0,027.0,020.0,08.3,0000.0,0004.72,0001.81,0001.25
2024-03-10 05:55:00,SystemResetWarning,0828.8,5.00,000.00,018.2,016.9,000.0,027.0,020.0,08.4,0000.0,0004.89,0001.86,0001.26
2024-03-10 05:56:00,SystemResetWarning,0828.8,5.00,000.00,018.2,016.9,000.0,027.0,020.0,08.0,0000.0,0005.01,0001.89,0001.27
2024-03-10 05:57:00,SystemResetWarning,0828.8,5.01,000.00,018.2,016.9,000.0,027.0,020.0,07.9,0000.0,0005.35,0001.99,0001.29
2024-03-10 05:58:00,SystemResetWarning,0828.8,5.00,000.00,018.2,016.9,000.0,027.0,020.0,08.1,0000.0,0005.50,0002.03,0001.30
2024-03-10 05:59:00,SystemResetWarning,0828.8,4.99,000.00,018.2,016.9,000.0,027.0,020.0,08.1,0000.0,0005.66,0002.09,0001.31
